Location: Unspecified
(0.0000°N, 0.0000°E)
Time: 02:30:03
(UTC+00:00)

ISS - Pass Details

Date: 03 March 2026
Orbit: 417 x 426 km, 51.6° (Epoch: 16 March)

Event Time Altitude Azimuth Distance (km) Brightness Sun altitude
Rises 19:52:17 0° 215° (SW) 2,381 0.7 -24.9°
Reaches altitude 10° 19:54:23 10° 214° (SW) 1,513 -0.4 -25.5°
Enters shadow 19:55:40 21° 214° (SW) 1,003 -1.5 -25.8°
